Location: Invercargill
(46.4000°S, 168.3500°E)
Time: 04:31:16
(UTC+13:00)

Cosmos 2322 - Pass Details

Date: 05 October 2021
Orbit: 840 x 855 km, 71.0° (Epoch: 24 October)

Event Time Altitude Azimuth Distance (km) Brightness Sun altitude
Rises 21:51:08 0° 203° (SSW) 3,437 7.7 -18.8°
Reaches altitude 10° 21:53:44 10° 196° (SSW) 2,497 6.8 -19.2°
Maximum altitude 21:59:11 43° 125° (SE) 1,193 4.3 -20.0°
Enters shadow 22:00:45 35° 87° (E) 1,350 4.3 -20.3°
